{"data":{"norad_id":68416,"intl_designator":"2026-067A","name":"PEAKSAT","alt_names":[],"object_type":"PAYLOAD","status":"ACTIVE","operator":null,"country":"GREC","launch_date":"2026-03-30","launch_site_code":"AFWTR","launch_vehicle":null,"mission":null,"orbit_class":"UNKNOWN","rcs_meters":null,"size_class":null,"mass_kg":null,"dimensions":null,"purposes":[],"wikipedia_slug":null,"has_3d_model":false,"image_url":null,"decayed_at":null,"tle_current":{"epoch":"2026-09-19T15:00:24.137568Z","epoch_age_seconds":145300,"freshness":"FRESH","line1":"1 68416U 26067A   26262.62527937  .00004903  00000+0  22743-3 0  9991","line2":"2 68416  97.4650 220.1444 0001151  15.6469 344.4802 15.20512338 26298","mean_motion":15.20512338,"eccentricity":0.0001151,"inclination_deg":97.465,"raan_deg":220.1444,"arg_perigee_deg":15.6469,"mean_anomaly_deg":344.4802,"bstar":0.00022743,"rev_number":2629,"period_min":94.704920441099,"perigee_km":503.50198409525,"apogee_km":505.08631974642,"semimajor_km":6882.4311519208,"source":"CELESTRAK","updated_at":"2026-09-20T09:00:24.197584Z"}}}